User: anonymous   Login
Location: Fort Wayne
(41.1310°N, 85.1290°W)
Time: 19:23:05
(UTC-04:00)
Language:

OAO 2 Rocket - Orbit

View from above orbital plane
View from above orbital plane
View from above satellite
View from above satellite

Ground track
Ground track

The orbit data is extracted from the following two-line orbital elements,

1 03598U 68110B   17229.72649677  .00000043  00000-0  14756-4 0  9994
2 03598  34.9948 349.7122 0049424   6.0708 354.0576 14.54319467575434
Epoch (UTC): 17 August 2017 17:26:09
Eccentricity: 0.0049424
inclination: 34.9948°
perigee height: 676 km
apogee height: 746 km
right ascension of ascending node: 349.7122°
argument of perigee: 6.0708°
revolutions per day: 14.54319467
mean anomaly at epoch: 354.0576°
orbit number at epoch: 57543

The dashed part of the orbit path shows where the satellite is in the earth's shadow,  

DLR